Location: Düngen
(52.0952°N, 10.0219°E)
Time: 19:17:32
(UTC+00:00)

Cosmos 841 Rocket - Pass Details

Date: 11 March 2026
Orbit: 742 x 767 km, 74.0° (Epoch: 20 April)

Event Time Altitude Azimuth Distance (km) Brightness Sun altitude
Rises 19:21:28 0° 337° (NNW) 3,199 7.4 -19.6°
Reaches altitude 10° 19:23:58 10° 345° (NNW) 2,274 6.4 -19.9°
Maximum altitude 19:28:50 40° 55° (NE) 1,093 4.0 -20.6°
Enters shadow 19:29:31 38° 75° (ENE) 1,130 4.0 -20.7°
